NOAA 16 DEB, 41657

Orbit data source: Space-Track

NOAA 16 DEB, 41657 is space debris in SSO originally from a launch on Thu, 21 Sep 2000 UTC launched from the Air Force Western Test Range (AFWTR). Debris objects in space refer to the collection of defunct objects orbiting the Earth. Examples of debris include non-operational satellites, rocket bodies, and fragments generated from explosions, collisions, or faulty payload assembly.

Loading next visibility...
Identifier
41657, 2000-055NW
Orbit
SSO
Country
Flag of USUS
Related business
Manufacturer
Unknown
Mission
Spacecraft
Bus & Motor
Unknown
Mass
Unknown
Launch date (UTC)
2000-09-21 (26 years ago)
Launch vehicle
Unknown
Launch site
Air Force Western Test Range (AFWTR)
Object type
Payload
Rocket body
Debris
Shape & HBR
Unknown shape, 0.1 m
Radar Cross Section
Medium (>0.1 m² and <1 m²)

Expand to show TLE details & history
Last TLE update: 2 days ago

TLE from 2 days ago
0 NOAA 16 DEB
1 41657U 00055NW  26248.12653244  .00001728  00000-0  64284-3 0  9997
2 41657  98.6269 313.2397 0010816 252.1611 107.8393 14.33327707537482
Epoch: 2026-09-05T03:02Z
TLE epoch observation values (Epoch: 2026-09-05T03:02:12.402Z)
Latitude
-0.00009°
Longitude
-76.55244°
Altitude
785.945 km
Speed
7.46 km/s
True Right ascension
20h 52m 57s
True Declination
0° 00' 00"
Sunlit
Object was in full shadow at epoch
Visualization orbit readout
Latitude
Unknown
Longitude
Unknown
Altitude
Unknown
Speed
Unknown
Apparent Right ascension
Unknown
Apparent Declination
Unknown
Sunlit
N/A
Visualization observer readout
Local Sidereal Time
13:06:12
Azimuth
Unknown
Elevation
Unknown
Doppler factor
Unknown
Orbital elements
Apogee altitude
785.506 km
Perigee altitude
770.026 km
Semi-major axis
7,155.903 km
Eccentricity
0.00108
Inclination
98.6269°
RAAN
313.2397°
Arg. of periapsis
252.1611°
True anomaly
107.95723°
Mean anomaly
107.8393°
Eccentric anomaly
107.89827°
Mean motion
3.58547 °/min
Orbital period
100.41 mins
BSTAR
0.00064284
Loading maneuver chart data...
Computing Atmospheric mass density...
Loading historical data...
Loading historical data...
Loading historical data...
Loading historical data...
Loading historical data...
Loading historical data...
Loading historical data...

Documentation

Showing up to 5 results
|